Time,TemperatureF,DewpointF,PressureIn,WindDirection,WindDirectionDegrees,WindSpeedMPH,WindSpeedGustMPH,Humidity,HourlyPrecipIn,Conditions,Clouds,dailyrainin,SoftwareType,DateUTC
2013-01-23 00:03:00,36.0,36.0,29.88,East,88,0.0,0.0,100,0.00,,---,0.00,VWS V14.01,2013-01-23 08:03:00,
2013-01-23 00:08:00,36.0,36.0,29.88,East,88,0.0,0.0,100,0.00,,---,0.00,VWS V14.01,2013-01-23 08:08:00,
2013-01-23 00:13:00,36.0,36.0,29.88,East,87,0.0,0.0,100,0.00,,---,0.00,VWS V14.01,2013-01-23 08:13:00,
2013-01-23 00:18:00,36.0,36.0,29.88,East,87,0.0,0.0,100,0.00,,---,0.00,VWS V14.01,2013-01-23 08:18:00,
2013-01-23 00:23:00,36.0,36.0,29.88,East,87,0.0,0.0,100,0.00,,---,0.00,VWS V14.01,2013-01-23 08:23:00,
2013-01-23 00:28:00,36.1,36.1,29.88,East,88,0.0,0.0,100,0.00,,---,0.00,VWS V14.01,2013-01-23 08:28:00,
2013-01-23 00:33:00,36.1,36.1,29.88,East,87,0.0,0.0,100,0.00,,---,0.00,VWS V14.01,2013-01-23 08:33:00,
2013-01-23 00:38:00,36.1,36.1,29.88,East,87,0.0,0.0,100,0.00,,---,0.00,VWS V14.01,2013-01-23 08:38:00,
2013-01-23 00:43:00,36.1,36.1,29.88,East,88,0.0,0.0,100,0.00,,---,0.00,VWS V14.01,2013-01-23 08:43:00,
2013-01-23 00:48:00,36.1,36.1,29.88,North,10,0.0,0.0,100,0.00,,---,0.00,VWS V14.01,2013-01-23 08:48:00,
2013-01-23 00:53:00,36.3,36.3,29.88,NE,49,4.0,4.0,100,0.00,,---,0.00,VWS V14.01,2013-01-23 08:53:00,
2013-01-23 00:58:00,36.3,36.3,29.88,ENE,64,0.0,0.0,100,0.00,,---,0.00,VWS V14.01,2013-01-23 08:58:00,
2013-01-23 01:03:00,36.1,36.1,29.88,NNW,335,0.0,0.0,100,0.00,,---,0.00,VWS V14.01,2013-01-23 09:03:00,
2013-01-23 01:08:00,36.1,36.1,29.88,NNW,342,0.0,0.0,100,0.00,,---,0.00,VWS V14.01,2013-01-23 09:08:00,
2013-01-23 01:13:00,36.0,36.0,29.88,NNW,342,0.0,0.0,100,0.00,,---,0.00,VWS V14.01,2013-01-23 09:13:00,
2013-01-23 01:18:00,36.0,36.0,29.88,NNW,342,0.0,0.0,100,0.00,,---,0.00,VWS V14.01,2013-01-23 09:18:00,
2013-01-23 01:23:00,36.0,36.0,29.88,East,83,0.0,0.0,100,0.00,,---,0.00,VWS V14.01,2013-01-23 09:23:00,
2013-01-23 01:28:00,36.0,36.0,29.88,East,84,0.0,0.0,100,0.00,,---,0.00,VWS V14.01,2013-01-23 09:28:00,
2013-01-23 01:33:00,36.0,36.0,29.88,East,84,0.0,0.0,100,0.00,,---,0.00,VWS V14.01,2013-01-23 09:33:00,
2013-01-23 01:38:00,36.0,36.0,29.88,NE,51,3.1,3.1,100,0.00,,---,0.00,VWS V14.01,2013-01-23 09:38:00,
2013-01-23 01:43:00,36.0,36.0,29.88,NNE,16,2.2,2.2,100,0.00,,---,0.00,VWS V14.01,2013-01-23 09:43:00,
2013-01-23 01:48:00,36.0,36.0,29.88,East,90,0.0,2.2,100,0.00,,---,0.00,VWS V14.01,2013-01-23 09:48:00,
2013-01-23 01:53:00,36.0,36.0,29.88,NE,50,0.0,0.0,100,0.00,,---,0.00,VWS V14.01,2013-01-23 09:53:00,
2013-01-23 01:58:00,36.0,36.0,29.88,WNW,287,0.0,0.0,100,0.00,,---,0.00,VWS V14.01,2013-01-23 09:58:00,
2013-01-23 02:03:00,36.1,36.1,29.88,West,276,4.9,4.9,100,0.00,,---,0.00,VWS V14.01,2013-01-23 10:03:00,
2013-01-23 02:08:00,36.1,36.1,29.91,WNW,299,3.6,3.6,100,0.00,,---,0.00,VWS V14.01,2013-01-23 10:08:00,
2013-01-23 02:13:00,36.1,36.1,29.91,West,276,3.1,3.1,100,0.00,,---,0.00,VWS V14.01,2013-01-23 10:13:00,
2013-01-23 02:18:00,36.7,36.7,29.91,West,276,0.0,0.0,100,0.00,,---,0.00,VWS V14.01,2013-01-23 10:18:00,
2013-01-23 02:23:00,36.7,36.7,29.91,NE,41,2.7,2.7,100,0.00,,---,0.00,VWS V14.01,2013-01-23 10:23:00,
2013-01-23 02:28:00,36.9,36.9,29.91,ENE,72,0.0,0.0,100,0.00,,---,0.00,VWS V14.01,2013-01-23 10:28:00,
2013-01-23 02:33:00,36.9,36.9,29.91,ENE,72,0.0,0.0,100,0.00,,---,0.00,VWS V14.01,2013-01-23 10:33:00,
2013-01-23 02:38:00,36.9,36.9,29.91,North,0,0.0,0.0,100,0.00,,---,0.00,VWS V14.01,2013-01-23 10:38:00,
2013-01-23 02:43:00,36.9,36.9,29.91,NNE,20,0.0,0.0,100,0.00,,---,0.00,VWS V14.01,2013-01-23 10:43:00,
2013-01-23 02:48:00,36.9,36.9,29.88,ENE,58,0.0,0.0,100,0.00,,---,0.00,VWS V14.01,2013-01-23 10:48:00,
2013-01-23 02:53:00,36.7,36.7,29.88,NE,38,2.7,2.7,100,0.00,,---,0.00,VWS V14.01,2013-01-23 10:53:00,
2013-01-23 02:58:00,36.9,36.9,29.88,West,272,7.6,7.6,100,0.00,,---,0.00,VWS V14.01,2013-01-23 10:58:00,
2013-01-23 03:03:00,36.9,36.9,29.91,WNW,302,2.2,2.2,100,0.00,,---,0.00,VWS V14.01,2013-01-23 11:03:00,
2013-01-23 03:08:00,36.9,36.9,29.91,West,275,0.0,0.0,100,0.00,,---,0.00,VWS V14.01,2013-01-23 11:08:00,
2013-01-23 03:13:00,37.0,37.0,29.91,West,275,0.0,0.0,100,0.00,,---,0.00,VWS V14.01,2013-01-23 11:13:00,
2013-01-23 03:18:00,37.2,37.2,29.91,West,275,0.0,0.0,100,0.00,,---,0.00,VWS V14.01,2013-01-23 11:18:00,
2013-01-23 03:23:00,37.2,37.2,29.91,West,275,0.0,0.0,100,0.00,,---,0.00,VWS V14.01,2013-01-23 11:23:00,
2013-01-23 03:28:00,37.2,37.2,29.91,West,275,3.1,3.1,100,0.00,,---,0.00,VWS V14.01,2013-01-23 11:28:00,
2013-01-23 03:33:00,37.2,37.2,29.91,West,275,0.0,0.0,100,0.00,,---,0.00,VWS V14.01,2013-01-23 11:33:00,
2013-01-23 03:38:00,37.2,37.2,29.91,West,275,0.0,0.0,100,0.00,,---,0.00,VWS V14.01,2013-01-23 11:38:00,
2013-01-23 03:43:00,37.2,37.2,29.91,West,275,0.0,0.0,100,0.00,,---,0.00,VWS V14.01,2013-01-23 11:43:00,
2013-01-23 03:48:00,37.4,37.4,29.91,West,275,0.0,0.0,100,0.00,,---,0.00,VWS V14.01,2013-01-23 11:48:00,
2013-01-23 03:53:00,37.4,37.4,29.91,West,275,0.0,0.0,100,0.00,,---,0.00,VWS V14.01,2013-01-23 11:53:00,
2013-01-23 03:58:00,37.4,37.4,29.91,NE,42,0.0,0.0,100,0.00,,---,0.00,VWS V14.01,2013-01-23 11:58:00,
2013-01-23 04:03:00,37.4,37.4,29.91,NE,42,0.0,0.0,100,0.00,,---,0.00,VWS V14.01,2013-01-23 12:03:00,
2013-01-23 04:08:00,37.4,37.4,29.91,WNW,288,0.0,0.0,100,0.00,,---,0.00,VWS V14.01,2013-01-23 12:08:00,
2013-01-23 04:13:00,37.4,37.4,29.91,WNW,288,0.0,0.0,100,0.00,,---,0.00,VWS V14.01,2013-01-23 12:13:00,
2013-01-23 04:18:00,37.4,37.4,29.91,WNW,288,0.0,0.0,100,0.00,,---,0.00,VWS V14.01,2013-01-23 12:18:00,
2013-01-23 04:23:00,37.2,37.2,29.91,NNE,20,0.0,0.0,100,0.00,,---,0.00,VWS V14.01,2013-01-23 12:23:00,
2013-01-23 04:28:00,37.2,37.2,29.91,NNE,20,0.0,0.0,100,0.00,,---,0.00,VWS V14.01,2013-01-23 12:28:00,
2013-01-23 04:33:00,37.2,37.2,29.91,NNE,20,0.0,0.0,100,0.00,,---,0.00,VWS V14.01,2013-01-23 12:33:00,
2013-01-23 04:38:00,37.2,37.2,29.91,NNE,20,0.0,0.0,100,0.00,,---,0.00,VWS V14.01,2013-01-23 12:38:00,
2013-01-23 04:43:00,37.2,37.2,29.91,NNE,20,0.0,0.0,100,0.00,,---,0.00,VWS V14.01,2013-01-23 12:43:00,
2013-01-23 04:48:00,37.0,37.0,29.91,NNE,20,0.0,0.0,100,0.00,,---,0.00,VWS V14.01,2013-01-23 12:48:00,
2013-01-23 04:53:00,37.0,37.0,29.91,NNE,20,0.0,0.0,100,0.00,,---,0.00,VWS V14.01,2013-01-23 12:53:00,
2013-01-23 04:59:00,37.0,37.0,29.91,NE,41,0.0,0.0,100,0.00,,---,0.00,VWS V14.01,2013-01-23 12:59:00,
2013-01-23 05:04:00,37.0,37.0,29.88,NE,41,0.0,0.0,100,0.00,,---,0.00,VWS V14.01,2013-01-23 13:04:00,
2013-01-23 05:09:00,37.0,37.0,29.88,NE,41,0.0,0.0,100,0.00,,---,0.00,VWS V14.01,2013-01-23 13:09:00,
2013-01-23 05:14:00,37.0,37.0,29.88,NE,41,0.0,0.0,100,0.00,,---,0.00,VWS V14.01,2013-01-23 13:14:00,
2013-01-23 05:19:00,36.9,36.9,29.88,NE,41,0.0,0.0,100,0.00,,---,0.00,VWS V14.01,2013-01-23 13:19:00,
2013-01-23 05:24:00,36.9,36.9,29.88,NE,41,0.0,0.0,100,0.00,,---,0.00,VWS V14.01,2013-01-23 13:24:00,
2013-01-23 05:29:00,36.9,36.9,29.88,NE,41,0.0,0.0,100,0.00,,---,0.00,VWS V14.01,2013-01-23 13:29:00,
2013-01-23 05:34:00,37.0,37.0,29.88,NE,41,0.0,0.0,100,0.00,,---,0.00,VWS V14.01,2013-01-23 13:34:00,
2013-01-23 05:39:00,37.0,37.0,29.88,NE,41,0.0,0.0,100,0.00,,---,0.00,VWS V14.01,2013-01-23 13:39:00,
2013-01-23 05:44:00,37.0,37.0,29.88,NE,41,0.0,0.0,100,0.00,,---,0.00,VWS V14.01,2013-01-23 13:44:00,
2013-01-23 05:49:00,37.0,37.0,29.85,NE,41,0.0,0.0,100,0.00,,---,0.00,VWS V14.01,2013-01-23 13:49:00,
2013-01-23 05:54:00,37.0,37.0,29.85,NE,41,0.0,0.0,100,0.00,,---,0.00,VWS V14.01,2013-01-23 13:54:00,
2013-01-23 05:59:00,37.0,37.0,29.85,NE,41,0.0,0.0,100,0.00,,---,0.00,VWS V14.01,2013-01-23 13:59:00,
2013-01-23 06:04:00,37.0,37.0,29.85,NE,41,0.0,0.0,100,0.00,,---,0.00,VWS V14.01,2013-01-23 14:04:00,
2013-01-23 06:09:00,37.0,37.0,29.85,NE,41,0.0,0.0,100,0.00,,---,0.00,VWS V14.01,2013-01-23 14:09:00,
2013-01-23 06:14:00,37.0,37.0,29.85,NE,41,0.0,0.0,100,0.00,,---,0.00,VWS V14.01,2013-01-23 14:14:00,
2013-01-23 06:19:00,37.0,37.0,29.85,NE,41,0.0,0.0,100,0.00,,---,0.00,VWS V14.01,2013-01-23 14:19:00,
2013-01-23 06:24:00,37.0,37.0,29.85,West,260,0.0,0.0,100,0.00,,---,0.00,VWS V14.01,2013-01-23 14:24:00,
2013-01-23 06:29:00,37.0,37.0,29.85,West,271,0.0,0.0,100,0.00,,---,0.00,VWS V14.01,2013-01-23 14:29:00,
2013-01-23 06:34:00,37.0,37.0,29.85,WSW,257,0.0,0.0,100,0.00,,---,0.00,VWS V14.01,2013-01-23 14:34:00,
2013-01-23 06:39:00,37.0,37.0,29.85,WSW,257,0.0,0.0,100,0.00,,---,0.00,VWS V14.01,2013-01-23 14:39:00,
2013-01-23 06:43:00,37.0,37.0,29.85,WSW,257,0.0,0.0,100,0.00,,---,0.00,VWS V14.01,2013-01-23 14:43:00,
2013-01-23 06:48:00,37.0,37.0,29.85,WSW,257,0.0,0.0,100,0.00,,---,0.00,VWS V14.01,2013-01-23 14:48:00,
2013-01-23 06:53:00,37.0,37.0,29.85,WSW,257,0.0,0.0,100,0.00,,---,0.00,VWS V14.01,2013-01-23 14:53:00,
2013-01-23 06:58:00,37.0,37.0,29.85,WSW,257,0.0,0.0,100,0.00,,---,0.00,VWS V14.01,2013-01-23 14:58:00,
2013-01-23 07:03:00,37.0,37.0,29.85,WSW,257,0.0,0.0,100,0.00,,---,0.00,VWS V14.01,2013-01-23 15:03:00,
2013-01-23 07:08:00,37.0,37.0,29.85,WSW,257,0.0,0.0,100,0.00,,---,0.00,VWS V14.01,2013-01-23 15:08:00,
2013-01-23 07:13:00,37.0,37.0,29.85,WSW,257,0.0,0.0,100,0.00,,---,0.00,VWS V14.01,2013-01-23 15:13:00,
2013-01-23 07:18:00,37.0,37.0,29.82,WSW,258,0.0,0.0,100,0.00,,---,0.00,VWS V14.01,2013-01-23 15:18:00,
2013-01-23 07:23:00,37.0,37.0,29.82,WSW,258,0.0,0.0,100,0.00,,---,0.00,VWS V14.01,2013-01-23 15:23:00,
2013-01-23 07:28:00,37.0,37.0,29.82,WSW,258,0.0,0.0,100,0.00,,---,0.00,VWS V14.01,2013-01-23 15:28:00,
2013-01-23 07:33:00,37.0,37.0,29.85,WSW,258,0.0,0.0,100,0.00,,---,0.00,VWS V14.01,2013-01-23 15:33:00,
2013-01-23 07:38:00,36.9,36.9,29.85,WSW,258,0.0,0.0,100,0.00,,---,0.00,VWS V14.01,2013-01-23 15:38:00,
2013-01-23 07:43:00,36.9,36.9,29.85,WSW,258,0.0,0.0,100,0.00,,---,0.00,VWS V14.01,2013-01-23 15:43:00,
2013-01-23 07:48:00,36.9,36.9,29.85,WSW,251,3.1,3.1,100,0.00,,---,0.00,VWS V14.01,2013-01-23 15:48:00,
2013-01-23 07:53:00,36.9,36.9,29.85,WSW,258,0.0,0.0,100,0.00,,---,0.00,VWS V14.01,2013-01-23 15:53:00,
2013-01-23 07:58:00,36.9,36.9,29.85,WSW,258,0.0,0.0,100,0.00,,---,0.00,VWS V14.01,2013-01-23 15:58:00,
2013-01-23 08:03:00,37.0,37.0,29.85,WSW,258,0.0,0.0,100,0.00,,---,0.00,VWS V14.01,2013-01-23 16:03:00,
2013-01-23 08:08:00,37.0,37.0,29.85,WSW,258,0.0,0.0,100,0.00,,---,0.00,VWS V14.01,2013-01-23 16:08:00,
2013-01-23 08:13:00,37.0,37.0,29.85,WSW,258,0.0,0.0,100,0.00,,---,0.00,VWS V14.01,2013-01-23 16:13:00,
2013-01-23 08:18:00,37.0,37.0,29.85,WSW,258,0.0,0.0,100,0.00,,---,0.00,VWS V14.01,2013-01-23 16:18:00,
2013-01-23 08:23:00,37.2,37.2,29.85,WSW,258,0.0,0.0,100,0.00,,---,0.00,VWS V14.01,2013-01-23 16:23:00,
2013-01-23 08:28:00,37.2,37.2,29.85,WSW,258,0.0,0.0,100,0.00,,---,0.00,VWS V14.01,2013-01-23 16:28:00,
2013-01-23 08:33:00,37.2,37.2,29.85,WSW,258,0.0,0.0,100,0.00,,---,0.00,VWS V14.01,2013-01-23 16:33:00,
2013-01-23 08:38:00,37.4,37.4,29.85,WSW,258,0.0,0.0,100,0.00,,---,0.00,VWS V14.01,2013-01-23 16:38:00,
2013-01-23 08:43:00,37.4,37.4,29.85,WSW,258,0.0,0.0,100,0.00,,---,0.00,VWS V14.01,2013-01-23 16:43:00,
2013-01-23 08:48:00,37.4,37.4,29.82,WSW,258,0.0,0.0,100,0.00,,---,0.00,VWS V14.01,2013-01-23 16:48:00,
2013-01-23 08:53:00,37.4,37.4,29.82,WSW,258,0.0,0.0,100,0.00,,---,0.00,VWS V14.01,2013-01-23 16:53:00,
2013-01-23 08:58:00,37.6,37.6,29.82,WSW,258,0.0,0.0,100,0.00,,---,0.00,VWS V14.01,2013-01-23 16:58:00,
2013-01-23 09:03:00,37.6,37.6,29.82,WSW,258,0.0,0.0,100,0.00,,---,0.00,VWS V14.01,2013-01-23 17:03:00,
2013-01-23 09:08:00,37.6,37.6,29.82,WSW,258,0.0,0.0,100,0.00,,---,0.00,VWS V14.01,2013-01-23 17:08:00,
2013-01-23 09:13:00,37.6,37.6,29.82,WSW,258,0.0,0.0,100,0.00,,---,0.00,VWS V14.01,2013-01-23 17:13:00,
2013-01-23 09:18:00,37.8,37.8,29.85,SSW,208,0.0,0.0,100,0.00,,---,0.00,VWS V14.01,2013-01-23 17:18:00,
2013-01-23 09:23:00,37.9,37.9,29.85,West,261,0.0,0.0,100,0.00,,---,0.00,VWS V14.01,2013-01-23 17:23:00,
2013-01-23 09:28:00,37.9,37.9,29.85,West,261,0.0,0.0,100,0.00,,---,0.00,VWS V14.01,2013-01-23 17:28:00,
2013-01-23 09:33:00,38.1,38.1,29.85,West,261,0.0,0.0,100,0.00,,---,0.00,VWS V14.01,2013-01-23 17:33:00,
2013-01-23 09:38:00,38.1,38.1,29.85,West,261,0.0,0.0,100,0.00,,---,0.00,VWS V14.01,2013-01-23 17:38:00,
2013-01-23 09:43:00,38.1,38.1,29.85,West,261,0.0,0.0,100,0.00,,---,0.00,VWS V14.01,2013-01-23 17:43:00,
2013-01-23 09:48:00,38.5,38.5,29.85,West,261,0.0,0.0,100,0.00,,---,0.00,VWS V14.01,2013-01-23 17:48:00,
2013-01-23 09:53:00,38.5,38.5,29.85,West,261,0.0,0.0,100,0.00,,---,0.00,VWS V14.01,2013-01-23 17:53:00,
2013-01-23 09:58:00,38.7,38.7,29.85,SSW,202,0.0,0.0,100,0.00,,---,0.00,VWS V14.01,2013-01-23 17:58:00,
2013-01-23 10:03:00,38.8,38.8,29.85,SSW,201,0.0,0.0,100,0.00,,---,0.00,VWS V14.01,2013-01-23 18:03:00,
2013-01-23 10:08:00,38.8,38.8,29.85,SSW,202,0.0,0.0,100,0.00,,---,0.00,VWS V14.01,2013-01-23 18:08:00,
2013-01-23 10:13:00,39.0,39.0,29.85,SSW,201,0.0,0.0,100,0.00,,---,0.00,VWS V14.01,2013-01-23 18:13:00,
2013-01-23 10:18:00,39.2,39.2,29.85,SSW,202,0.0,0.0,100,0.00,,---,0.00,VWS V14.01,2013-01-23 18:18:00,
2013-01-23 10:23:00,39.4,39.4,29.85,SSW,201,0.0,0.0,100,0.00,,---,0.00,VWS V14.01,2013-01-23 18:23:00,
2013-01-23 10:28:00,39.6,39.6,29.85,SSW,201,0.0,0.0,100,0.00,,---,0.00,VWS V14.01,2013-01-23 18:28:00,
2013-01-23 10:33:00,39.6,39.6,29.85,SSW,202,0.0,0.0,100,0.00,,---,0.00,VWS V14.01,2013-01-23 18:33:00,
2013-01-23 10:38:00,39.7,39.7,29.85,SSW,202,0.0,0.0,100,0.00,,---,0.00,VWS V14.01,2013-01-23 18:38:00,
2013-01-23 10:43:00,39.7,39.7,29.85,SSW,202,0.0,0.0,100,0.00,,---,0.00,VWS V14.01,2013-01-23 18:43:00,
2013-01-23 10:48:00,39.9,39.9,29.85,SSW,193,0.0,0.0,100,0.00,,---,0.00,VWS V14.01,2013-01-23 18:48:00,
2013-01-23 10:53:00,40.1,40.1,29.85,SSW,193,0.0,0.0,100,0.00,,---,0.00,VWS V14.01,2013-01-23 18:53:00,
2013-01-23 10:58:00,40.1,40.1,29.85,SSW,193,0.0,0.0,100,0.00,,---,0.00,VWS V14.01,2013-01-23 18:58:00,
2013-01-23 11:03:00,40.3,40.3,29.85,SSW,193,0.0,0.0,100,0.00,,---,0.00,VWS V14.01,2013-01-23 19:03:00,
2013-01-23 11:08:00,40.3,40.3,29.85,SSW,193,0.0,0.0,100,0.00,,---,0.00,VWS V14.01,2013-01-23 19:08:00,
2013-01-23 11:13:00,40.5,40.5,29.85,SSW,193,0.0,0.0,100,0.00,,---,0.00,VWS V14.01,2013-01-23 19:13:00,
2013-01-23 11:18:00,40.5,40.5,29.85,SSW,193,0.0,0.0,100,0.00,,---,0.00,VWS V14.01,2013-01-23 19:18:00,
2013-01-23 11:23:00,40.5,40.5,29.85,SSW,193,0.0,0.0,100,0.00,,---,0.00,VWS V14.01,2013-01-23 19:23:00,
2013-01-23 11:28:00,40.5,40.5,29.85,SSW,193,0.0,0.0,100,0.00,,---,0.00,VWS V14.01,2013-01-23 19:28:00,
2013-01-23 11:33:00,40.5,40.5,29.85,SSW,193,0.0,0.0,100,0.00,,---,0.00,VWS V14.01,2013-01-23 19:33:00,
2013-01-23 11:38:00,40.5,40.5,29.85,SSW,193,0.0,0.0,100,0.00,,---,0.00,VWS V14.01,2013-01-23 19:38:00,
2013-01-23 11:43:00,40.6,40.6,29.85,SSW,193,0.0,0.0,100,0.00,,---,0.00,VWS V14.01,2013-01-23 19:43:00,
2013-01-23 11:48:00,40.6,40.6,29.85,SSW,193,0.0,0.0,100,0.00,,---,0.00,VWS V14.01,2013-01-23 19:48:00,
2013-01-23 11:53:00,40.6,40.6,29.85,SSW,193,0.0,0.0,100,0.00,,---,0.00,VWS V14.01,2013-01-23 19:53:00,
2013-01-23 11:58:00,40.8,40.8,29.85,SSW,193,0.0,0.0,100,0.00,,---,0.00,VWS V14.01,2013-01-23 19:58:00,
2013-01-23 12:03:00,41.0,41.0,29.82,SSW,193,0.0,0.0,100,0.00,,---,0.00,VWS V14.01,2013-01-23 20:03:00,
2013-01-23 12:08:00,41.0,41.0,29.82,SSW,193,0.0,0.0,100,0.00,,---,0.00,VWS V14.01,2013-01-23 20:08:00,
2013-01-23 12:13:00,41.0,41.0,29.82,SSW,193,0.0,0.0,100,0.00,,---,0.00,VWS V14.01,2013-01-23 20:13:00,
2013-01-23 12:18:00,41.0,41.0,29.82,SSW,193,0.0,0.0,100,0.00,,---,0.00,VWS V14.01,2013-01-23 20:18:00,
2013-01-23 12:23:00,41.2,41.2,29.82,SSW,193,0.0,0.0,100,0.00,,---,0.00,VWS V14.01,2013-01-23 20:23:00,
2013-01-23 12:28:00,41.2,41.2,29.82,SSW,193,0.0,0.0,100,0.00,,---,0.00,VWS V14.01,2013-01-23 20:28:00,
2013-01-23 12:33:00,41.2,41.2,29.82,SSW,193,0.0,0.0,100,0.00,,---,0.00,VWS V14.01,2013-01-23 20:33:00,
2013-01-23 12:38:00,41.2,41.2,29.82,SSW,193,0.0,0.0,100,0.00,,---,0.00,VWS V14.01,2013-01-23 20:38:00,
2013-01-23 12:43:00,41.0,41.0,29.82,SSW,194,0.0,0.0,100,0.00,,---,0.00,VWS V14.01,2013-01-23 20:43:00,
2013-01-23 12:48:00,41.0,41.0,29.82,SSW,192,3.1,3.1,100,0.00,,---,0.00,VWS V14.01,2013-01-23 20:48:00,
2013-01-23 12:53:00,41.0,41.0,29.82,SSW,192,0.0,0.0,100,0.00,,---,0.00,VWS V14.01,2013-01-23 20:53:00,
2013-01-23 12:58:00,40.8,40.8,29.82,SSW,193,0.0,0.0,100,0.00,,---,0.00,VWS V14.01,2013-01-23 20:58:00,
2013-01-23 13:03:00,40.8,40.8,29.82,SSW,192,0.0,0.0,100,0.00,,---,0.00,VWS V14.01,2013-01-23 21:03:00,
2013-01-23 13:08:00,40.8,40.8,29.79,SSW,193,0.0,0.0,100,0.00,,---,0.00,VWS V14.01,2013-01-23 21:08:00,
2013-01-23 13:13:00,40.6,40.6,29.79,SW,233,2.7,2.7,100,0.00,,---,0.00,VWS V14.01,2013-01-23 21:13:00,
2013-01-23 13:18:00,40.6,40.6,29.79,WSW,252,3.6,3.6,100,0.00,,---,0.00,VWS V14.01,2013-01-23 21:18:00,
2013-01-23 13:23:00,40.6,40.6,29.79,South,183,0.0,0.0,100,0.00,,---,0.00,VWS V14.01,2013-01-23 21:23:00,
2013-01-23 13:28:00,40.6,40.6,29.79,South,183,0.0,0.0,100,0.00,,---,0.00,VWS V14.01,2013-01-23 21:28:00,
2013-01-23 13:33:00,40.6,40.6,29.79,South,183,0.0,0.0,100,0.00,,---,0.00,VWS V14.01,2013-01-23 21:33:00,
2013-01-23 13:38:00,40.6,40.6,29.79,South,183,0.0,0.0,100,0.04,,---,0.04,VWS V14.01,2013-01-23 21:38:00,
2013-01-23 13:43:00,40.6,40.6,29.79,South,183,0.0,0.0,100,0.04,,---,0.04,VWS V14.01,2013-01-23 21:43:00,
2013-01-23 13:48:00,40.6,40.6,29.79,South,183,0.0,0.0,100,0.04,,---,0.04,VWS V14.01,2013-01-23 21:48:00,
2013-01-23 13:53:00,40.6,40.6,29.79,South,183,0.0,0.0,100,0.04,,---,0.04,VWS V14.01,2013-01-23 21:53:00,
2013-01-23 13:58:00,40.6,40.6,29.79,South,183,0.0,0.0,100,0.04,,---,0.04,VWS V14.01,2013-01-23 21:58:00,
2013-01-23 14:03:00,40.6,40.6,29.79,South,183,0.0,0.0,100,0.04,,---,0.04,VWS V14.01,2013-01-23 22:03:00,
2013-01-23 14:08:00,40.6,40.6,29.79,South,183,0.0,0.0,100,0.04,,---,0.04,VWS V14.01,2013-01-23 22:08:00,
2013-01-23 14:13:00,40.6,40.6,29.79,South,183,0.0,0.0,100,0.04,,---,0.04,VWS V14.01,2013-01-23 22:13:00,
2013-01-23 14:18:00,40.6,40.6,29.79,South,184,0.0,0.0,100,0.04,,---,0.04,VWS V14.01,2013-01-23 22:18:00,
2013-01-23 14:23:00,40.6,40.6,29.79,South,183,0.0,0.0,100,0.04,,---,0.04,VWS V14.01,2013-01-23 22:23:00,
2013-01-23 14:28:00,40.8,40.8,29.79,South,183,0.0,0.0,100,0.04,,---,0.04,VWS V14.01,2013-01-23 22:28:00,
2013-01-23 14:33:00,40.8,40.8,29.79,South,183,0.0,0.0,100,0.04,,---,0.04,VWS V14.01,2013-01-23 22:33:00,
2013-01-23 14:38:00,40.8,40.8,29.82,South,183,0.0,0.0,100,0.00,,---,0.04,VWS V14.01,2013-01-23 22:38:00,
2013-01-23 14:43:00,41.0,41.0,29.82,WSW,246,0.0,0.0,100,0.04,,---,0.08,VWS V14.01,2013-01-23 22:43:00,
2013-01-23 14:48:00,41.0,41.0,29.82,WSW,246,0.0,0.0,100,0.04,,---,0.08,VWS V14.01,2013-01-23 22:48:00,
2013-01-23 14:53:00,41.0,41.0,29.82,WSW,246,0.0,0.0,100,0.04,,---,0.08,VWS V14.01,2013-01-23 22:53:00,
2013-01-23 14:58:00,41.0,41.0,29.82,WSW,246,0.0,0.0,100,0.04,,---,0.08,VWS V14.01,2013-01-23 22:58:00,
2013-01-23 15:03:00,41.0,41.0,29.82,WSW,246,0.0,0.0,100,0.04,,---,0.08,VWS V14.01,2013-01-23 23:03:00,
2013-01-23 15:08:00,41.0,41.0,29.82,WSW,246,0.0,0.0,100,0.04,,---,0.08,VWS V14.01,2013-01-23 23:08:00,
2013-01-23 15:13:00,41.0,41.0,29.82,WSW,245,0.0,0.0,100,0.04,,---,0.08,VWS V14.01,2013-01-23 23:13:00,
2013-01-23 15:18:00,41.0,41.0,29.82,WSW,246,0.0,0.0,100,0.04,,---,0.08,VWS V14.01,2013-01-23 23:18:00,
2013-01-23 15:23:00,41.0,41.0,29.85,WSW,246,0.0,0.0,100,0.04,,---,0.08,VWS V14.01,2013-01-23 23:23:00,
2013-01-23 15:28:00,41.0,41.0,29.85,WSW,246,0.0,0.0,100,0.12,,---,0.16,VWS V14.01,2013-01-23 23:28:00,
2013-01-23 15:33:00,41.0,41.0,29.85,WSW,246,0.0,0.0,100,0.12,,---,0.16,VWS V14.01,2013-01-23 23:33:00,
2013-01-23 15:38:00,41.0,41.0,29.85,WSW,245,0.0,0.0,100,0.12,,---,0.16,VWS V14.01,2013-01-23 23:38:00,
2013-01-23 15:43:00,41.0,41.0,29.85,WSW,246,0.0,0.0,100,0.08,,---,0.16,VWS V14.01,2013-01-23 23:43:00,
2013-01-23 15:48:00,41.0,41.0,29.85,WSW,246,0.0,0.0,100,0.08,,---,0.16,VWS V14.01,2013-01-23 23:48:00,
2013-01-23 15:53:00,41.0,41.0,29.85,WSW,246,0.0,0.0,100,0.08,,---,0.16,VWS V14.01,2013-01-23 23:53:00,
2013-01-23 15:58:00,41.0,41.0,29.85,WSW,245,0.0,0.0,100,0.08,,---,0.16,VWS V14.01,2013-01-23 23:58:00,
2013-01-23 16:03:00,41.0,41.0,29.88,WSW,245,0.0,0.0,100,0.08,,---,0.16,VWS V14.01,2013-01-24 00:03:00,
2013-01-23 16:08:00,41.0,41.0,29.88,WSW,246,0.0,0.0,100,0.08,,---,0.16,VWS V14.01,2013-01-24 00:08:00,
2013-01-23 16:13:00,41.0,41.0,29.88,WSW,246,0.0,0.0,100,0.08,,---,0.16,VWS V14.01,2013-01-24 00:13:00,
2013-01-23 16:18:00,41.0,41.0,29.88,WSW,246,0.0,0.0,100,0.12,,---,0.20,VWS V14.01,2013-01-24 00:18:00,
2013-01-23 16:23:00,41.0,41.0,29.88,WSW,244,0.0,0.0,100,0.12,,---,0.20,VWS V14.01,2013-01-24 00:23:00,
2013-01-23 16:28:00,41.0,41.0,29.88,WSW,244,0.0,0.0,100,0.12,,---,0.20,VWS V14.01,2013-01-24 00:28:00,
2013-01-23 16:33:00,41.0,41.0,29.88,WSW,244,0.0,0.0,100,0.04,,---,0.20,VWS V14.01,2013-01-24 00:33:00,
2013-01-23 16:38:00,41.0,41.0,29.88,WSW,244,0.0,0.0,100,0.04,,---,0.20,VWS V14.01,2013-01-24 00:38:00,
2013-01-23 16:43:00,41.0,41.0,29.88,WSW,244,0.0,0.0,100,0.04,,---,0.20,VWS V14.01,2013-01-24 00:43:00,
2013-01-23 16:48:00,41.0,41.0,29.88,WSW,244,0.0,0.0,100,0.04,,---,0.20,VWS V14.01,2013-01-24 00:48:00,
2013-01-23 16:53:00,41.0,41.0,29.88,WSW,244,0.0,0.0,100,0.04,,---,0.20,VWS V14.01,2013-01-24 00:53:00,
2013-01-23 16:58:00,41.0,41.0,29.88,WSW,244,0.0,0.0,100,0.04,,---,0.20,VWS V14.01,2013-01-24 00:58:00,
2013-01-23 17:03:00,41.0,41.0,29.88,WSW,244,0.0,0.0,100,0.04,,---,0.20,VWS V14.01,2013-01-24 01:03:00,
2013-01-23 17:08:00,40.8,40.8,29.88,WSW,244,0.0,0.0,100,0.04,,---,0.20,VWS V14.01,2013-01-24 01:08:00,
2013-01-23 17:13:00,40.8,40.8,29.88,WSW,244,0.0,0.0,100,0.04,,---,0.20,VWS V14.01,2013-01-24 01:13:00,
2013-01-23 17:18:00,40.8,40.8,29.88,WSW,244,0.0,0.0,100,0.04,,---,0.24,VWS V14.01,2013-01-24 01:18:00,
2013-01-23 17:23:00,40.8,40.8,29.88,WSW,244,0.0,0.0,100,0.04,,---,0.24,VWS V14.01,2013-01-24 01:23:00,
2013-01-23 17:28:00,40.8,40.8,29.88,WSW,244,0.0,0.0,100,0.04,,---,0.24,VWS V14.01,2013-01-24 01:28:00,
2013-01-23 17:33:00,40.8,40.8,29.88,WSW,244,0.0,0.0,100,0.04,,---,0.24,VWS V14.01,2013-01-24 01:33:00,
2013-01-23 17:38:00,40.8,40.8,29.88,WSW,244,0.0,0.0,100,0.04,,---,0.24,VWS V14.01,2013-01-24 01:38:00,
2013-01-23 17:43:00,40.8,40.8,29.88,WSW,244,0.0,0.0,100,0.04,,---,0.24,VWS V14.01,2013-01-24 01:43:00,
2013-01-23 17:48:00,40.8,40.8,29.91,WSW,244,0.0,0.0,100,0.04,,---,0.24,VWS V14.01,2013-01-24 01:48:00,
2013-01-23 17:53:00,40.8,40.8,29.91,WSW,244,0.0,0.0,100,0.04,,---,0.24,VWS V14.01,2013-01-24 01:53:00,
2013-01-23 17:58:00,40.8,40.8,29.91,WSW,244,0.0,0.0,100,0.04,,---,0.24,VWS V14.01,2013-01-24 01:58:00,
2013-01-23 18:03:00,40.8,40.8,29.91,WSW,244,0.0,0.0,100,0.04,,---,0.24,VWS V14.01,2013-01-24 02:03:00,
2013-01-23 18:08:00,41.0,41.0,29.91,West,279,0.0,0.0,100,0.04,,---,0.24,VWS V14.01,2013-01-24 02:08:00,
2013-01-23 18:13:00,41.0,41.0,29.91,West,279,0.0,0.0,100,0.04,,---,0.24,VWS V14.01,2013-01-24 02:13:00,
2013-01-23 18:18:00,41.0,41.0,29.91,West,279,0.0,0.0,100,0.00,,---,0.24,VWS V14.01,2013-01-24 02:18:00,
2013-01-23 18:23:00,41.2,41.2,29.91,WSW,247,0.0,0.0,100,0.00,,---,0.24,VWS V14.01,2013-01-24 02:23:00,
2013-01-23 18:28:00,41.2,41.2,29.91,WSW,239,0.0,0.0,100,0.00,,---,0.24,VWS V14.01,2013-01-24 02:28:00,
2013-01-23 18:33:00,41.4,41.4,29.91,WSW,239,0.0,0.0,100,0.00,,---,0.24,VWS V14.01,2013-01-24 02:33:00,
2013-01-23 18:38:00,41.5,41.5,29.91,WSW,244,0.0,0.0,100,0.00,,---,0.24,VWS V14.01,2013-01-24 02:38:00,
2013-01-23 18:43:00,41.7,41.7,29.91,WSW,244,0.0,0.0,100,0.00,,---,0.24,VWS V14.01,2013-01-24 02:43:00,
2013-01-23 18:48:00,41.7,41.7,29.91,SW,234,0.0,0.0,100,0.00,,---,0.24,VWS V14.01,2013-01-24 02:48:00,
2013-01-23 18:53:00,41.7,41.7,29.93,SW,234,0.0,0.0,100,0.00,,---,0.24,VWS V14.01,2013-01-24 02:53:00,
2013-01-23 18:58:00,41.9,41.9,29.93,SW,234,0.0,0.0,100,0.00,,---,0.24,VWS V14.01,2013-01-24 02:58:00,
2013-01-23 19:03:00,42.1,42.1,29.93,SW,233,0.0,0.0,100,0.00,,---,0.24,VWS V14.01,2013-01-24 03:03:00,
2013-01-23 19:08:00,42.1,42.1,29.93,SW,233,0.0,0.0,100,0.00,,---,0.24,VWS V14.01,2013-01-24 03:08:00,
2013-01-23 19:13:00,42.3,42.3,29.93,SW,233,0.0,0.0,100,0.00,,---,0.24,VWS V14.01,2013-01-24 03:13:00,
2013-01-23 19:18:00,42.3,42.3,29.93,SW,233,0.0,0.0,100,0.00,,---,0.24,VWS V14.01,2013-01-24 03:18:00,
2013-01-23 19:23:00,42.3,42.3,29.93,SW,233,0.0,0.0,100,0.00,,---,0.24,VWS V14.01,2013-01-24 03:23:00,
2013-01-23 19:28:00,42.3,42.3,29.93,SW,233,0.0,0.0,100,0.00,,---,0.24,VWS V14.01,2013-01-24 03:28:00,
2013-01-23 19:33:00,42.4,42.4,29.93,SW,233,0.0,0.0,100,0.00,,---,0.24,VWS V14.01,2013-01-24 03:33:00,
2013-01-23 19:38:00,42.4,42.4,29.93,SW,234,0.0,0.0,100,0.00,,---,0.24,VWS V14.01,2013-01-24 03:38:00,
2013-01-23 19:43:00,42.4,42.4,29.93,SW,233,0.0,0.0,100,0.00,,---,0.24,VWS V14.01,2013-01-24 03:43:00,
2013-01-23 19:48:00,42.4,42.4,29.96,SW,233,0.0,0.0,100,0.00,,---,0.24,VWS V14.01,2013-01-24 03:48:00,
2013-01-23 19:53:00,42.4,42.4,29.96,SSW,200,0.0,0.0,100,0.00,,---,0.24,VWS V14.01,2013-01-24 03:53:00,
2013-01-23 19:58:00,42.4,42.4,29.96,SSW,212,0.0,0.0,100,0.00,,---,0.24,VWS V14.01,2013-01-24 03:58:00,
2013-01-23 20:03:00,42.4,42.4,29.96,WSW,238,0.0,0.0,100,0.00,,---,0.24,VWS V14.01,2013-01-24 04:03:00,
2013-01-23 20:08:00,42.4,42.4,29.96,SW,234,0.0,0.0,100,0.00,,---,0.24,VWS V14.01,2013-01-24 04:08:00,
2013-01-23 20:13:00,42.4,42.4,29.96,South,191,0.0,0.0,100,0.00,,---,0.24,VWS V14.01,2013-01-24 04:13:00,
2013-01-23 20:18:00,42.4,42.4,29.96,South,191,0.0,0.0,100,0.00,,---,0.24,VWS V14.01,2013-01-24 04:18:00,
2013-01-23 20:23:00,42.4,42.4,29.96,WSW,248,0.0,0.0,100,0.00,,---,0.24,VWS V14.01,2013-01-24 04:23:00,
2013-01-23 20:28:00,42.6,42.6,29.96,WSW,249,0.0,0.0,100,0.00,,---,0.24,VWS V14.01,2013-01-24 04:28:00,
2013-01-23 20:33:00,42.6,42.6,29.96,SW,215,2.7,2.7,100,0.00,,---,0.24,VWS V14.01,2013-01-24 04:33:00,
2013-01-23 20:38:00,42.8,42.8,29.99,SSW,206,4.0,4.0,100,0.00,,---,0.24,VWS V14.01,2013-01-24 04:38:00,
2013-01-23 20:43:00,42.8,42.8,29.99,SSW,211,0.0,0.0,100,0.00,,---,0.24,VWS V14.01,2013-01-24 04:43:00,
2013-01-23 20:48:00,42.8,42.8,29.99,South,169,0.0,0.0,100,0.00,,---,0.24,VWS V14.01,2013-01-24 04:48:00,
2013-01-23 20:53:00,43.0,43.0,29.99,WSW,254,0.0,0.0,100,0.00,,---,0.24,VWS V14.01,2013-01-24 04:53:00,
2013-01-23 20:58:00,43.0,43.0,29.99,SSW,196,0.0,0.0,100,0.00,,---,0.24,VWS V14.01,2013-01-24 04:58:00,
2013-01-23 21:00:00,43.0,43.0,29.99,SSW,196,0.0,0.0,100,0.04,,---,0.28,VWS V14.01,2013-01-24 05:00:00,
2013-01-23 21:01:00,43.0,43.0,29.99,SSW,198,2.2,2.2,100,0.04,,---,0.28,VWS V14.01,2013-01-24 05:01:00,
2013-01-23 21:06:00,43.0,43.0,29.99,WSW,253,0.0,0.0,100,0.04,,---,0.28,VWS V14.01,2013-01-24 05:06:00,
2013-01-23 21:11:00,43.0,43.0,29.99,WSW,245,3.6,3.6,100,0.04,,---,0.28,VWS V14.01,2013-01-24 05:11:00,
2013-01-23 21:16:00,43.0,43.0,29.99,WSW,253,0.0,0.0,100,0.04,,---,0.00,VWS V14.01,2013-01-24 05:16:00,
2013-01-23 21:21:00,43.0,43.0,30.02,WSW,253,0.0,0.0,100,0.04,,---,0.28,VWS V14.01,2013-01-24 05:21:00,
2013-01-23 21:26:00,43.0,43.0,30.02,SSW,210,0.0,0.0,100,0.04,,---,0.28,VWS V14.01,2013-01-24 05:26:00,
2013-01-23 21:31:00,43.0,43.0,30.02,SSW,195,0.0,0.0,100,0.04,,---,0.28,VWS V14.01,2013-01-24 05:31:00,
2013-01-23 21:36:00,43.0,43.0,30.02,SSW,195,0.0,0.0,100,0.04,,---,0.28,VWS V14.01,2013-01-24 05:36:00,
2013-01-23 21:41:00,43.2,43.2,30.02,SSW,195,0.0,0.0,100,0.04,,---,0.28,VWS V14.01,2013-01-24 05:41:00,
2013-01-23 21:46:00,43.0,43.0,30.02,SSW,195,0.0,0.0,100,0.04,,---,0.28,VWS V14.01,2013-01-24 05:46:00,
2013-01-23 21:51:00,43.0,43.0,30.02,WSW,242,2.2,2.2,100,0.04,,---,0.28,VWS V14.01,2013-01-24 05:51:00,
2013-01-23 21:56:00,43.0,43.0,30.02,WSW,237,0.0,0.0,100,0.04,,---,0.28,VWS V14.01,2013-01-24 05:56:00,
2013-01-23 22:01:00,43.0,43.0,30.02,WSW,237,0.0,0.0,100,0.00,,---,0.28,VWS V14.01,2013-01-24 06:01:00,
2013-01-23 22:06:00,43.0,43.0,30.02,SW,229,0.0,0.0,100,0.00,,---,0.28,VWS V14.01,2013-01-24 06:06:00,
2013-01-23 22:11:00,43.0,43.0,30.02,SW,229,0.0,0.0,100,0.00,,---,0.28,VWS V14.01,2013-01-24 06:11:00,
2013-01-23 22:16:00,43.0,43.0,30.02,SW,229,0.0,0.0,100,0.00,,---,0.28,VWS V14.01,2013-01-24 06:16:00,
2013-01-23 22:21:00,43.0,43.0,30.05,SW,229,0.0,0.0,100,0.00,,---,0.28,VWS V14.01,2013-01-24 06:21:00,
2013-01-23 22:26:00,43.0,43.0,30.05,SW,229,0.0,0.0,100,0.00,,---,0.28,VWS V14.01,2013-01-24 06:26:00,
2013-01-23 22:31:00,43.0,43.0,30.05,SW,229,0.0,0.0,100,0.00,,---,0.28,VWS V14.01,2013-01-24 06:31:00,
2013-01-23 22:36:00,42.8,42.8,30.05,SW,229,0.0,0.0,100,0.00,,---,0.28,VWS V14.01,2013-01-24 06:36:00,
2013-01-23 22:41:00,42.8,42.8,30.05,SW,229,0.0,0.0,100,0.00,,---,0.28,VWS V14.01,2013-01-24 06:41:00,
2013-01-23 22:46:00,42.8,42.8,30.05,SW,229,0.0,0.0,100,0.00,,---,0.28,VWS V14.01,2013-01-24 06:46:00,
2013-01-23 22:51:00,42.8,42.8,30.05,SW,229,0.0,0.0,100,0.00,,---,0.28,VWS V14.01,2013-01-24 06:51:00,
2013-01-23 22:56:00,42.6,42.6,30.05,WSW,253,0.0,0.0,100,0.00,,---,0.28,VWS V14.01,2013-01-24 06:56:00,
2013-01-23 23:01:00,42.8,42.8,30.05,SSW,206,0.0,0.0,100,0.00,,---,0.28,VWS V14.01,2013-01-24 07:01:00,
2013-01-23 23:06:00,42.8,42.8,30.05,West,259,2.2,2.2,100,0.00,,---,0.28,VWS V14.01,2013-01-24 07:06:00,
2013-01-23 23:11:00,42.8,42.8,30.05,West,259,2.2,2.2,100,0.00,,---,0.28,VWS V14.01,2013-01-24 07:11:00,
2013-01-23 23:16:00,42.8,42.8,30.08,WSW,251,0.0,0.0,100,0.00,,---,0.28,VWS V14.01,2013-01-24 07:16:00,
2013-01-23 23:21:00,43.0,43.0,30.08,WSW,251,0.0,0.0,100,0.00,,---,0.28,VWS V14.01,2013-01-24 07:21:00,
2013-01-23 23:26:00,43.0,43.0,30.08,WSW,252,0.0,0.0,100,0.00,,---,0.28,VWS V14.01,2013-01-24 07:26:00,
2013-01-23 23:31:00,43.0,43.0,30.08,SSW,197,0.0,0.0,100,0.00,,---,0.28,VWS V14.01,2013-01-24 07:31:00,
2013-01-23 23:36:00,43.0,43.0,30.08,SSW,197,0.0,0.0,100,0.00,,---,0.28,VWS V14.01,2013-01-24 07:36:00,
2013-01-23 23:41:00,43.0,43.0,30.08,West,273,0.0,0.0,100,0.00,,---,0.28,VWS V14.01,2013-01-24 07:41:00,
2013-01-23 23:46:00,43.0,43.0,30.08,WSW,251,0.0,0.0,100,0.00,,---,0.28,VWS V14.01,2013-01-24 07:46:00,
2013-01-23 23:51:00,43.0,43.0,30.08,WSW,251,0.0,0.0,100,0.00,,---,0.28,VWS V14.01,2013-01-24 07:51:00,
2013-01-23 23:56:00,43.0,43.0,30.08,WSW,250,0.0,0.0,100,0.00,,---,0.28,VWS V14.01,2013-01-24 07:56:00,